STARLINK-1912, 47178

Orbit data source: Space-Track

STARLINK-1912, 47178 is a payload satellite owned by SpaceX/Seattle (US) in LEO that was launched on Wed, 25 Nov 2020 UTC via an FALCON 9 launch vehicle from the Air Force Eastern Test Range (AFETR). Payload-class satellites include a variety of spacecraft equipped with specific instruments for various scientific and technological missions. These include communications satellites like Starlink; space stations such as the ISS; scientific satellites like the Hubble; Earth observation satellites from companies like Planet Labs, Umbra, and HawkEye 360; GPS; miniature CubeSats for education and research; and military/defense satellites.

Loading next visibility...
Identifier
47178, 2020-088BJ
Orbit
LEO
Country
Flag of USUS
Related business
Manufacturer
SpaceX/Seattle
Mission
Partially operational Commercial Communications
Bus & Motor
STARLINK, Unknown motor
Mass
260 kg wet, ~248 kg dry
Launch date (UTC)
2020-11-25 (6 years ago)
Launch vehicle
FALCON 9
Launch site
Air Force Eastern Test Range (AFETR)
Object type
Payload
Rocket body
Debris
Shape & HBR
Box + 1 Pan, 10.1 m
Radar Cross Section
13.562 m², Large (>1 m²)

Expand to show TLE details & history
Last TLE update: 2 days ago

TLE from 2 days ago
0 STARLINK-1912
1 47178U 20088BJ  26171.19142013  .00110287  00000-0  64080-3 0  9993
2 47178  53.0453 137.4470 0001311 121.0784 239.0365 15.77701116308188
Epoch: 2026-06-20T04:35Z
TLE epoch observation values (Epoch: 2026-06-20T04:35:38.699Z)
Latitude
0.00002°
Longitude
160.12619°
Altitude
338.314 km
Speed
7.707 km/s
True Right ascension
09h 09m 47s
True Declination
0° 00' 00"
Sunlit
Object was in daylight at epoch
Visualization orbit readout
Latitude
Unknown
Longitude
Unknown
Altitude
Unknown
Speed
Unknown
Apparent Right ascension
Unknown
Apparent Declination
Unknown
Sunlit
N/A
Visualization observer readout
Local Sidereal Time
23:07:06
Azimuth
Unknown
Elevation
Unknown
Doppler factor
Unknown
Orbital elements
Apogee altitude
338.117 km
Perigee altitude
336.356 km
Semi-major axis
6,715.373 km
Eccentricity
0.00013
Inclination
53.0453°
RAAN
137.447°
Arg. of periapsis
121.0784°
True anomaly
239.02362°
Mean anomaly
239.0365°
Eccentric anomaly
239.03006°
Mean motion
3.94401 °/min
Orbital period
91.28 mins
BSTAR
0.0006408
Loading maneuver chart data...
Computing Atmospheric mass density...

Documentation

Showing up to 5 results
|